,,PA_Meas_PMT16A,,PR_Meas_QMR101_102,,RH_Meas_QMH101,,SR_Meas_QMS101,,TA_Meas_QMH101,,GenWind,,GenWind,
time,status,PA,status,PR,status,RH,status,SR,status,TA,status,DirAvg,status,SpdAvg,
2014-07-03, 06:40:04,VALID,917.272,VALID,0,VALID,97.1833,VALID,18.1576,VALID,18.8853,VALID,143,VALID,1.29766,
2014-07-03, 06:41:04,VALID,917.29,VALID,0,VALID,97.2138,VALID,19.4468,VALID,18.8853,VALID,136,VALID,1.23359,
2014-07-03, 06:42:04,VALID,917.278,VALID,0,VALID,97.1757,VALID,20.7361,VALID,18.8644,VALID,158,VALID,0.857422,
2014-07-03, 06:43:04,VALID,917.282,VALID,0,VALID,97.1833,VALID,22.0254,VALID,18.9034,VALID,155,VALID,0.976563,
2014-07-03, 06:44:04,VALID,917.303,VALID,0,VALID,97.1909,VALID,23.5296,VALID,18.9034,VALID,168,VALID,0.816406,
2014-07-03, 06:45:04,VALID,917.297,VALID,0,VALID,97.1909,VALID,25.1412,VALID,18.9633,VALID,176,VALID,1.00781,
2014-07-03, 06:46:04,VALID,917.316,VALID,0,VALID,97.1833,VALID,27.0752,VALID,18.9633,VALID,162,VALID,1.08125,
2014-07-03, 06:47:04,VALID,917.322,VALID,0,VALID,97.1757,VALID,28.9017,VALID,18.9828,VALID,163,VALID,0.680078,
2014-07-03, 06:48:04,VALID,917.337,VALID,0,VALID,97.1757,VALID,29.7612,VALID,18.9828,VALID,159,VALID,0.827344,
2014-07-03, 06:49:04,VALID,917.353,VALID,0,VALID,97.1909,VALID,31.8026,VALID,18.9828,VALID,157,VALID,1.48281,
2014-07-03, 06:50:04,VALID,917.326,VALID,0,VALID,97.1757,VALID,32.7696,VALID,18.9814,VALID,163,VALID,1.08359,
2014-07-03, 06:51:04,VALID,917.329,VALID,0,VALID,97.1757,VALID,32.877,VALID,18.9633,VALID,161,VALID,0.853125,
2014-07-03, 06:52:04,VALID,917.311,VALID,0,VALID,97.1909,VALID,34.1663,VALID,18.9633,VALID,145,VALID,1.41133,
2014-07-03, 06:53:04,VALID,917.297,VALID,0,VALID,97.1909,VALID,36.2077,VALID,18.9828,VALID,153,VALID,1.21523,
2014-07-03, 06:54:04,VALID,917.286,VALID,0,VALID,97.2062,VALID,49.4229,VALID,18.9828,VALID,136,VALID,1.20039,
2014-07-03, 06:55:04,VALID,917.281,VALID,0,VALID,97.1986,VALID,58.6629,VALID,18.9828,VALID,146,VALID,1.57109,
2014-07-03, 06:56:04,VALID,917.273,VALID,0,VALID,97.1909,VALID,61.6712,VALID,19.0218,VALID,138,VALID,1.3582,
2014-07-03, 06:57:04,VALID,917.326,VALID,0,VALID,97.1833,VALID,62.8531,VALID,19.0608,VALID,142,VALID,1.66523,
2014-07-03, 06:58:04,VALID,917.275,VALID,0,VALID,97.2062,VALID,54.6875,VALID,19.0788,VALID,137,VALID,1.51055,
2014-07-03, 06:59:04,VALID,917.281,VALID,0,VALID,97.1757,VALID,46.0923,VALID,19.0983,VALID,132,VALID,1.48906,
2014-07-03, 17:06:04,VALID,915.212,VALID,0,VALID,85.8244,VALID,27.9347,VALID,23.0551,VALID,312,VALID,0.687891,
2014-07-03, 17:07:04,VALID,915.208,VALID,0,VALID,86.0303,VALID,27.6124,VALID,23.0924,VALID,6,VALID,0.512891,
2014-07-03, 17:08:04,VALID,915.221,VALID,0,VALID,85.771,VALID,28.5793,VALID,23.1331,VALID,6,VALID,1.15977,
2014-07-03, 17:09:04,VALID,915.197,VALID,0,VALID,85.954,VALID,29.9761,VALID,23.0924,VALID,12,VALID,1.19414,
2014-07-03, 17:10:04,VALID,915.214,VALID,0,VALID,86.3428,VALID,31.91,VALID,23.0143,VALID,43,VALID,1.24648,
2014-07-03, 17:11:04,VALID,915.224,VALID,0,VALID,86.3428,VALID,33.3068,VALID,23.0338,VALID,43,VALID,0.678125,
2014-07-03, 17:12:04,VALID,915.235,VALID,0,VALID,86.3733,VALID,33.0919,VALID,23.016,VALID,44,VALID,1.00781,
2014-07-03, 17:13:04,VALID,915.27,VALID,0,VALID,86.2056,VALID,31.8026,VALID,22.9575,VALID,30,VALID,0.783984,
2014-07-03, 17:14:04,VALID,915.25,VALID,0,VALID,86.602,VALID,30.191,VALID,22.9185,VALID,30,VALID,0.500391,
2014-07-03, 17:15:04,VALID,915.266,VALID,0,VALID,86.9374,VALID,26.538,VALID,22.8599,VALID,30,VALID,0.075,
2014-07-03, 17:17:04,VALID,915.29,VALID,0,VALID,87.3034,VALID,31.0505,VALID,22.7428,VALID,270,VALID,0.756641,
2014-07-03, 17:18:04,VALID,915.235,VALID,0,VALID,87.5702,VALID,38.5714,VALID,22.7233,VALID,270,VALID,0.503906,
2014-07-03, 17:19:04,VALID,915.222,VALID,0,VALID,87.4253,VALID,42.4393,VALID,22.725,VALID,270,VALID,0,
2014-07-03, 17:20:04,VALID,915.176,VALID,0,VALID,87.5626,VALID,43.1913,VALID,22.7428,VALID,353,VALID,1.1707,
2014-07-03, 17:21:04,VALID,915.16,VALID,0,VALID,87.6235,VALID,40.2904,VALID,22.7818,VALID,355,VALID,0.635156,
2014-07-03, 17:22:04,VALID,915.185,VALID,0,VALID,87.3339,VALID,37.6044,VALID,22.7818,VALID,336,VALID,0.671094,
2014-07-03, 17:23:04,VALID,915.191,VALID,0,VALID,86.3657,VALID,36.3151,VALID,22.7233,VALID,315,VALID,0.351953,
2014-07-03, 17:24:04,VALID,915.162,VALID,0,VALID,86.4724,VALID,33.844,VALID,22.7038,VALID,315,VALID,0.473047,
2014-07-03, 17:25:04,VALID,915.15,VALID,0,VALID,86.4267,VALID,30.2984,VALID,22.725,VALID,315,VALID,0.490625,
2014-07-03, 17:26:04,VALID,915.157,VALID,0,VALID,86.8917,VALID,27.3975,VALID,22.7428,VALID,328,VALID,0.519922,
2014-07-03, 17:27:04,VALID,915.157,VALID,0,VALID,86.2666,VALID,24.9263,VALID,22.7623,VALID,328,VALID,0.244141,
2014-07-03, 17:29:04,VALID,915.151,VALID,0,VALID,86.6325,VALID,25.4636,VALID,22.7038,VALID,316,VALID,0.0148437,
2014-07-03, 17:30:04,VALID,915.157,VALID,0,VALID,86.6325,VALID,26.0008,VALID,22.7233,VALID,316,VALID,0.420312,
2014-07-03, 17:31:04,VALID,915.104,VALID,0,VALID,85.9921,VALID,27.3975,VALID,22.6843,VALID,314,VALID,0.680078,
2014-07-03, 17:32:04,VALID,915.143,VALID,0,VALID,86.7087,VALID,26.6454,VALID,22.5655,VALID,328,VALID,0.719922,
2014-07-03, 17:33:04,VALID,915.165,VALID,0,VALID,86.1141,VALID,25.4636,VALID,22.5477,VALID,265,VALID,0.894531,
2014-07-03, 17:34:04,VALID,915.131,VALID,0,VALID,86.7545,VALID,24.1743,VALID,22.5477,VALID,233,VALID,0.397656,
2014-07-03, 17:35:04,VALID,915.148,VALID,0,VALID,86.6325,VALID,23.8519,VALID,22.5477,VALID,249,VALID,1.46641,
2014-07-03, 17:36:04,VALID,915.177,VALID,0,VALID,87.3796,VALID,24.1743,VALID,22.4679,VALID,225,VALID,0.94375,
2014-07-03, 17:37:04,VALID,915.198,VALID,0,VALID,86.7011,VALID,23.8519,VALID,22.3916,VALID,251,VALID,1.14023,
2014-07-03, 17:38:04,VALID,915.245,VALID,0,VALID,87.189,VALID,22.3478,VALID,22.3525,VALID,251,VALID,0.436328,
2014-07-03, 17:42:04,VALID,915.26,VALID,0,VALID,87.0899,VALID,24.0668,VALID,22.4111,VALID,270,VALID,0.505469,
2014-07-03, 17:43:04,VALID,915.305,VALID,0,VALID,86.5639,VALID,25.1412,VALID,22.434,VALID,216,VALID,0.597656,
2014-07-03, 17:44:04,VALID,915.306,VALID,0,VALID,86.2285,VALID,25.1412,VALID,22.3916,VALID,206,VALID,0.9375,
2014-07-03, 17:45:04,VALID,915.305,VALID,0,VALID,85.8549,VALID,24.9263,VALID,22.4111,VALID,186,VALID,0.382813,
2014-07-03, 17:46:04,VALID,915.35,VALID,0,VALID,85.7101,VALID,24.8189,VALID,22.4111,VALID,186,VALID,0.603125,
2014-07-03, 17:47:04,VALID,915.39,VALID,0,VALID,84.6428,VALID,24.1743,VALID,22.4111,VALID,220,VALID,1.07969,
2014-07-03, 17:48:04,VALID,915.46,VALID,0,VALID,85.306,VALID,23.2073,VALID,22.4501,VALID,223,VALID,0.695313,
